www.pogodaiklimat.ru

Погода и климат >> Архив погоды >> Румыния >> Банлок


ПОГОДА в Банлоке

  • Прогноз погоды в Банлоке
  • Монитор погоды в Банлоке

АРХИВ ПОГОДЫ в Банлоке

Время (UTC), дата Ветер
(напр.,м/с)
 
Видим.   Явления Облачность Т
(С)
Тd
(С)
f
(%)
Тe
(С)
Тes
(С)
Комфортность P
(гПа)
Po
(гПа)
Тmin
(С)
Tmax
(С)
R
(мм)
R24
(мм)
S
(см)
15 13.08 ЮЗ 5-7
{9}
10 км 1/0
[Ci sp]
+35.6 +14.9 29 +37 +39 душно 1009.7 1000.3
18 13.08 ЮЗ 2-3
{3}
10 км 9/0
[Ac lent Cs]
+29.0 +19.4 56 +35 +35 очень
душно
1009.9 1000.4 +26.8 +36.8
21 13.08 ЮЗ 2-3
{7}
н/о н/о +23.3 +18.5 74 +29 +29 душно 1010.9 1001.1
00 14.08 З 3-4
{4}
н/о н/о +20.1 +17.9 87 +24 +24 комфорт 1010.0 1000.1
03 14.08 З 2-4
{6}
н/о н/о +18.3 +16.7 90 +19 +19 1010.2 1000.3
06 14.08 СЗ 4-6
{7}
10 км 6/6 600 м
[Sc]
+19.7 +17.4 87 +22 +23 комфорт 1011.4 1001.5 +16.6 +29.0
09 14.08 З 6-10
{10}
10 км 10/6 600 м
[Sc Ac As]
+19.7 +16.1 80 +22 +22 комфорт 1014.3 1004.4
12 14.08 З 4-6
{6}
10 км 10/6 600 м
[Cu Sc Ac As]
+20.1 +16.4 79 +23 +24 комфорт 1014.4 1004.5
15 14.08 З 5-8
{9}
10 км 10/8 600 м
[Cb calv Ac As]
+20.3 +15.8 75 +23 +23 комфорт 1014.3 1004.4
18 14.08 З 3-5
{5}
10 км 10/6 600 м
[Cb calv Ac As]
+18.2 +15.2 83 +19 +19 1015.4 1005.4 +18.2 +22.1
21 14.08 З 3-3
{3}
н/о н/о +16.7 +15.4 92 +16 +16 1015.7 1005.7
00 15.08 С 2-4
{6}
н/о н/о +17.1 +13.4 79 +17 +17 1015.8 1005.8
03 15.08 СЗ 2-3
{4}
н/о н/о +15.0 +12.8 87 +15 +15 1015.7 1005.6
06 15.08 СЗ 3-5
{5}
10 км 8/6 600 м
[Sc Ci sp]
+14.7 +11.8 83 +14 +15 1016.6 1006.5 +13.6 +18.2
09 15.08 СЗ 4-7
{7}
10 км 6/3 600 м
[Cu med, cong Ci sp]
+19.8 +10.7 56 +21 +27 комфорт 1016.3 1006.4
12 15.08 С 3-7
{8}
10 км 6/6 600 м
[Cu med, cong]
+23.3 +10.3 44 +25 +30 комфорт 1015.0 1005.2
15 15.08 СЗ 3-6
{8}
10 км 6/6 600 м
[Cu med, cong]
+24.5 +10.8 42 +26 +27 жарко 1013.9 1004.1
18 15.08 С 2-3
{5}
10 км 1/1 600 м
[Sc diur, vesp]
+21.2 +10.5 50 +23 +23 комфорт 1014.4 1004.6 +14.6 +25.3
21 15.08 С 2-2
{3}
н/о н/о +16.8 +11.9 73 +17 +17 1015.8 1005.8
00 16.08 С 1-2
{2}
н/о н/о +12.8 +11.0 89 +13 +13 1016.0 1005.8
03 16.08 штиль 0-1
{1}
н/о н/о +9.6 +9.4 99 +9 +9 1016.4 1006.1
06 16.08 З 1-1
{1}
10 км ясно +14.6 +12.9 90 +15 +19 1016.8 1006.7 +8.5 +21.2
09 16.08 СЗ 3-5
{5}
10 км 1/1 600 м
[Cu hum]
+22.8 +12.3 52 +26 +36 жарко 1017.0 1007.2
12 16.08 С 4-7
{8}
10 км 6/6 600 м
[Cu med, cong]
+25.8 +9.1 35 +26 +30 жарко 1015.8 1006.1
15 16.08 СЗ 5-7
{8}
10 км 8/8 600 м
[Cu Sc]
+26.7 +9.0 33 +27 +27 жарко 1015.0 1005.3
18 16.08 З 5-7
{10}
10 км 8/5 600 м
[Sc diur, vesp Ci sp]
+21.4 +13.7 61 +24 +24 комфорт 1015.7 1005.8 +14.6 +27.8
21 16.08 З 2-2
{4}
н/о н/о +16.5 +13.8 84 +17 +17 1017.1 1007.0
00 17.08 Ю 1-1
{3}
н/о н/о +14.9 +13.8 93 +15 +15 1017.1 1007.0
03 17.08 З 2-3
{4}
н/о н/о +14.8 +14.0 95 +14 +14 1017.1 1007.0
06 17.08 ЮЗ 2-3
{3}
10 км ясно +15.9 +15.0 94 +16 +19 1018.1 1008.0 +12.3 +21.4
09 17.08 З 1-3
{4}
10 км 4/4 600 м
[Cu hum]
+22.8 +16.2 66 +27 +37 душно 1018.2 1008.4
12 17.08 З 2-4
{5}
10 км 8/8 600 м
[Cu med, cong]
+25.6 +13.4 47 +28 +30 жарко 1017.0 1007.2
15 17.08 ЮЗ 2-4
{5}
10 км 8/4 600 м
[Cu med, cong Ci sp]
+27.8 +11.7 37 +29 +31 жарко 1015.7 1006.0
18 17.08 З 2-3
{4}
10 км 6/1 600 м
[Sc diur, vesp Ci sp]
+23.3 +13.3 53 +26 +26 жарко 1015.9 1006.1 +15.9 +28.3
21 17.08 Ю 1-1
{2}
н/о н/о +16.4 +13.0 80 +17 +17 1016.7 1006.7
00 18.08 Ю 1-2
{2}
н/о н/о +13.2 +12.1 93 +13 +13 1016.9 1006.7
03 18.08 Ю 2-2
{3}
н/о н/о +12.4 +11.9 97 +11 +11 1016.9 1006.7
06 18.08 Ю 3-4
{4}
10 км 1/0
[Ci fib]
+17.2 +14.0 81 +17 +20 1017.5 1007.5 +11.6 +23.3
09 18.08 ЮЗ 2-3
{4}
10 км 3/0
[Ci fib]
+25.5 +13.3 47 +28 +40 жарко 1017.4 1007.7
12 18.08 З 1-3
{5}
10 км ясно +28.7 +11.0 33 +29 +45 жарко 1016.8 1007.2
15 18.08 ЮЗ 2-3
{5}
10 км ясно +29.8 +9.4 28 +29 +33 жарко 1015.9 1006.3
18 18.08 ЮЗ 1-1
{2}
10 км ясно +25.7 +13.6 47 +28 +28 жарко 1015.8 1006.1 +17.2 +30.6
21 18.08 В 3-3
{4}
н/о н/о +18.9 +11.8 63 +20 +20 1016.7 1006.8
00 19.08 ЮВ 2-2
{3}
н/о н/о +16.5 +11.8 74 +17 +17 1016.6 1006.6
03 19.08 СВ 2-2
{2}
н/о н/о +14.4 +12.2 87 +14 +14 1016.8 1006.7
06 19.08 В 2-2
{3}
10 км ясно +19.3 +13.3 68 +21 +25 комфорт 1017.8 1007.8 +13.1 +25.6
09 19.08 Ю 3-6
{6}
10 км ясно +29.4 +12.8 36 +31 +42 жарко 1017.4 1007.8
12 19.08 ЮЗ 2-4
{6}
10 км ясно +32.5 +13.3 31 +33 +47 жарко 1016.7 1007.2
15 19.08 З 2-4
{4}
10 км 4/0
[Cc]
+33.8 +13.5 29 +35 +38 очень
жарко
1016.3 1006.8
18 19.08 З 2-2
{3}
10 км ясно +29.3 +14.7 41 +32 +32 душно 1016.4 1006.8 +19.3 +34.0
21 19.08 СВ 2-3
{3}
н/о н/о +23.1 +14.4 58 +27 +27 душно 1017.4 1007.5
00 20.08 В 2-2
{3}
н/о н/о +19.8 +14.5 71 +22 +22 комфорт 1017.7 1007.8
03 20.08 В 1-1
{2}
н/о н/о +15.9 +14.3 90 +17 +17 1018.3 1008.2
06 20.08 В 1-2
{2}
10 км ясно +23.0 +16.6 67 +28 +32 душно 1019.4 1009.6 +15.8 +29.3
09 20.08 ЮВ 4-7
{7}
10 км ясно +31.0 +15.1 38 +33 +42 душно 1019.3 1009.7

 

Местоположение метеостанции Банлок (Румыния): широта 45.38 долгота 21.13 высота над уровнем моря 83 м.

В архиве по умолчанию представлена погода в Банлоке за последнюю неделю. Архивные данные за месяц целиком и за предыдущие месяцы, начиная с января 2011 года, Вы можете получить, выбрав интересующий диапазон дат из раскрывающегося списка и нажав кнопку "Ввод!".


*Определитесь, кто Вы:
робот инопланетянин человек

Внимание! Время в таблицах - всемирное. Для получения местного времени необходимо прибавить поправку, которая равна 2 ч.

Смотрите также архив погоды в соседних городах и на ближайших метеорологических станциях:

Погода в Вршаце (Сербия) (30 км)
Погода в Банатски-Карловаце (Сербия) (38 км)
Погода в Тимишоаре (Румыния) (44 км)
Погода в Зренянине (Сербия) (55 км)
Погода в Жимболии (Румыния) (56 км)
Погода в Оравице (Румыния) (58 км)
Погода в Решице (Румыния) (62 км)
Погода в Лугоже (Румыния) (71 км)
Погода в Кикинде (Сербия) (73 км)
Погода в Семениче (Румыния) (75 км)

Пояснения к столбцам:

Ветер - указаны скорость ветра в м/с - средняя за 10 мин, порывы в срок и между сроками (в фигурных скобках) и направление, откуда дует ветер: С - северный, СВ - северо-восточный, В - восточный, ЮВ - юго-восточный, Ю - южный, ЮЗ - юго-западный, З - западный, СЗ - северо-западный.
Видимость - горизонтальная дальность видимости в метрах или километрах. При видимости от 1 до 10 км при отсутствии осадков обычно наблюдается дымка, при ухудшении видимости до 1 км и менее - туман. В сухую погоду видимость может ухудшаться дымом, пылью или мглою.
Явления - указаны атмосферные явления, наблюдавшиеся в срок или в последний час перед сроком; фигурными скобками обозначены явления, наблюдавшиеся между сроками (за 1-3 часа до срока); квадратными скобками обозначены град или гололедные отложения с указанием их диаметра в мм.
Облачность - указаны через наклонную черту общая и нижняя облачность в баллах и высота нижней границы облаков в метрах; квадратными скобками обозначены формы облаков: Ci - перистые, Cs - перисто-слоистые, Cc - перисто-кучевые, Ac - высококучевые, As - высокослоистые, Sc - слоисто-кучевые, Ns - слоисто-дождевые, Cu - кучевые, Cb - кучево-дождевые. Подробнее классификацию облаков см. в Атласе облаков (PDF).
T - Температура воздуха - температура, измеренная на высоте 2 м над землей.
Td - Температура точки росы - температура, при понижении до которой содержащийся в воздухе водяной пар достигнет насыщения.
f - Относительная влажность воздуха - влажноcть воздуха, измеренная на высоте 2 м над землей.
Te - Эффективная температура - температура, которую ощущает одетый по сезону человек в тени. Характеристика душности погоды. При расчете учитывается влияние влажности воздуха и скорости ветра на теплоощущения человека.
Tes - Эффективная температура на солнце - температура, которую ощущает человек, с поправкой на солнечный нагрев. Характеристика знойности погоды. Зависит от высоты солнца над горизонтом, облачности и скорости ветра. Ночью, в пасмурную погоду, а также при ветре 12 м/с и более поправка равна нулю.
P - Атмосферное давление - приведенное к уровню моря атмосферное давление.
Po - Атмосферное давление - измеренное на уровне метеостанции атмосферное давление.
Tmin - Минимальная температура - минимум температуры воздуха на высоте 2 м над землей.
Tmax - Максимальная температура - максимум температуры воздуха на высоте 2 м над землей.
R - Количество осадков - Количество выпавших осадков за период времени, мм. При наведении курсора мыши на число - период времени, за который выпало указанное количество осадков.
R24 - Количество осадков - Количество выпавших осадков за 24 часа, мм.
S - Снежный покров - Высота снежного покрова, см. При наведении курсора мыши на число - состояние снежного покрова и степень покрытия местности в баллах.